星链-35075(STARLINK-35075)

导读 | 豆包AI

STARLINK-35075是美国于北京时间2025年9月21日发射的星链卫星,隶属于太空探索技术公司(SpaceX)的星链星座项目。星链项目旨在构建全球卫星互联网星座,为全球偏远区域、信号覆盖薄弱地区等提供高速低延迟的宽带接入服务,这颗卫星进一步扩充了星链星座的在轨规模,完善全球网络覆盖能力。

Basic Information
目录编号:
65702
目录名称:
STARLINK-35075
国际标识:
2025-212AC
轨道中心:
EARTH
卫星名称:
星链-35075
卫星全名:
星链-35075(STARLINK-35075)
卫星状态:
在轨 (已飞行220 天)
发射日期:
2025-09-21 UTC
国别 :
美国 (US)
星等 :
--
Orbit Information
数据来源 国际轨道数据 AOE轨道数据
星历时间 2026-04-29T13:32:31+0800
4小时前
查看轨道信息
2026-04-26T23:00:00+0800
2天前
查看轨道信息
半长轴 6853.263km 6853.356km
偏心率 0.0001741 0.0000283
轨道倾角 53.160° 53.160°
近地点辐角 82.706° 357.434°
升交点赤经 110.765° 122.874°
平近点角 277.414° 39.475°
近地点 473.932km 475.025km
远地点 476.32km 475.413km
周期 94.103分钟 94.105分钟
每日圈数 15.302301 15.301987
Detailed Information
固有亮度:
5
最大亮度:
2.5
卫星平台:
Starlink V1.0
覆盖范围:
全球
运营商:
太空探索技术公司
运营商所在国:
美国
制造商(研发单位):
太空探索技术公司
制造商所在国:
美国
使用方式:
暂无
Satellite Introduction
Starlink 计划是 SpaceX 推出的全球卫星互联网项目,通过发射低轨道卫星,为全球尤其是偏远地区提供高速、低延迟的互联网服务。自 2019 年起,Starlink 已部署数千颗卫星,旨在缩小全球数字鸿沟,推动互联网普及。该项目还为军事、航空等行业提供通信支持,带来广泛经济效益。
2D Orbit Map
3D Orbit Map
Orbit Altitude Analysis Chart
Orbit Inclination Analysis Chart
Orbit Comprehensive Analysis Chart
View Comprehensive Chart